Regional Weather Roundup
Issued by NWS

Home | Current Version | Previous Version | Graphics & Text | Print | Product List | Glossary On
Versions: 1 2 3 4 5 6 7 8 9 10 11 12 13 14 15 16 17 18 19 20 21 22 23 24 25 26 27 28 29 30 31 32 33 34 35 36 37 38 39 40 41 42 43 44 45 46 47 48 49 50
000
ASUS43 KIND 011759
RWRIN

WEATHER ROUNDUP FOR INDIANA
NATIONAL WEATHER SERVICE INDIANAPOLIS IN
200 PM EDT MON SEP 01 2014

NOTE: "FAIR" INDICATES FEW OR NO CLOUDS BELOW 12,000 FEET WITH NO
SIGNIFICANT WEATHER AND/OR OBSTRUCTIONS TO VISIBILITY.

* - STATION DOES NOT REPORT WEATHER SUCH AS PRECIPITATION OR FOG.

+ - STATION NOT QUALITY CONTROLLED BY THE NATIONAL WEATHER SERVICE.
    USE DATA WITH CAUTION...ESPECIALLY DEWPOINT AND RELATIVE
    HUMIDITY OBSERVATIONS.

INZ001>003-010>013-019-020-011900-
NORTHWEST INDIANA

CITY           SKY/WX    TMP DP  RH WIND       PRES   REMARKS
GARY /AIRPORT/ PTSUNNY   81  72  74 W17       29.79S
KNOX *+        CLOUDY    77  70  78 SW10G18   29.80S
MONTICELLO +   CLOUDY    78  73  83 S15G22    29.82S
VALPARAISO     CLOUDY    78  71  79 SW12      29.80F
6HR MIN TEMP:  72; 6HR MAX TEMP:  78; 6HR PCP: TRACE;


$$

LMZ046-743>745-011900-
SOUTHERN LAKE MICHIGAN

STATION/POSITION TIME  TEMP WIND        PRES
                       AIR  DIR/SP/G
                 (UTC) (F)  (DEG/KT/KT) (MB)
MICHIGAN CITY    1700   74  190/ 13/ 16   N/A

$$

INZ004-005-014>016-021>024-011900-
NORTH CENTRAL INDIANA

CITY           SKY/WX    TMP DP  RH WIND       PRES   REMARKS
GOSHEN         CLOUDY    82  70  66 SW23      29.81F
6HR MIN TEMP:  73; 6HR MAX TEMP:  82;

SOUTH BEND     CLOUDY    79  71  76 SW16G22   29.81R
6HR MIN TEMP:  73; 6HR MAX TEMP:  80;


$$

INZ006>009-017-018-025>027-011900-
NORTHEAST INDIANA

CITY           SKY/WX    TMP DP  RH WIND       PRES   REMARKS
ANGOLA *+      MOSUNNY   81  75  83 SW14      29.82F
FORT WAYNE     PTSUNNY   82  70  66 SW20G30   29.84F
6HR MIN TEMP:  71; 6HR MAX TEMP:  83;


$$

INZ028-029-035-036-043>045-051>053-011900-
WEST CENTRAL INDIANA

CITY           SKY/WX    TMP DP  RH WIND       PRES   REMARKS
GREENCASTLE +  CLOUDY    77  72  83 S7        29.89S
LAFAYETTE      CLOUDY    79  71  76 SW10G18   29.83S
6HR MIN TEMP:  72; 6HR MAX TEMP:  79;

TERRE HAUTE    CLOUDY    81  71  71 SW17G24   29.88R
6HR MIN TEMP:  74; 6HR MAX TEMP:  81;


$$

INZ030>032-037>040-046>048-054>057-064-065-011900-
CENTRAL INDIANA

CITY           SKY/WX    TMP DP  RH WIND       PRES   REMARKS
COLUMBUS       PTSUNNY   82  73  74 MISG      29.90F
FRANKFORT +    CLOUDY    80  73  77 S10G17    29.87S
INDIANAPOLIS   CLOUDY    81  71  71 S14       29.87S
6HR MIN TEMP:  73; 6HR MAX TEMP:  81;

-EAGLE CREEK   CLOUDY    81  69  67 SW15G23   29.88R
6HR MIN TEMP:  73; 6HR MAX TEMP:  81;

KOKOMO *+      CLOUDY    81  72  74 SW16G22   29.85F
MT COMFORT *+  PTSUNNY   81  73  78 SW12G20   29.90R
SHELBYVILLE    CLOUDY    83  72  69 S14       29.89S
6HR MIN TEMP:  74; 6HR MAX TEMP:  84;


$$

INZ033-034-041-042-049-050-058-059-011900-
EAST CENTRAL INDIANA

CITY           SKY/WX    TMP DP  RH WIND       PRES   REMARKS
MUNCIE         PTSUNNY   82  70  66 SW12G20   29.88S
6HR MIN TEMP:  73; 6HR MAX TEMP:  82; 6HR PCP:  0.02;


$$

INZ060-061-067>069-081>083-085>088-011900-
SOUTHWEST INDIANA

CITY           SKY/WX    TMP DP  RH WIND       PRES   REMARKS
EVANSVILLE     CLOUDY    83  71  67 SW17G32   29.90F
6HR MIN TEMP:  73; 6HR MAX TEMP:  84; 6HR PCP:  0.15;


$$

INZ062-063-066-070>080-084-089>092-011900-
SOUTH CENTRAL AND SOUTHEAST INDIANA

CITY           SKY/WX    TMP DP  RH WIND       PRES   REMARKS
BLOOMINGTON    LGT RAIN  79  71  76 SW15G22   29.90S
6HR MIN TEMP:  74; 6HR MAX TEMP:  81; 6HR PCP: TRACE;


$$



USA.gov is the U.S. government's official web portal to all federal, state and local government web resources and services.